FW6364 Weather Reports


time (UTC)temp
C
wind
direction
speed
KPH
gust
KPH
rain 1hr
cm
rain 24hr
cm
rain mn
cm
humidity
%
barometer
mb
20260504041536 5 227 0.0 1.6 0.00 0.18 0.00 91 1008.0
20260504040035 5 242 0.0 3.2 0.03 0.18 0.18 90 1008.2
20260504034539 6 276 0.0 1.6 0.05 0.18 0.18 90 1008.2
20260504033043 6 360 0.0 0.0 0.10 0.18 0.18 90 1008.4
20260504031533 6 279 0.0 3.2 0.13 0.18 0.18 90 1008.5
20260504030028 5 278 0.0 6.4 0.13 0.15 0.15 90 1008.7
20260504024528 6 212 4.8 8.0 0.08 0.13 0.13 89 1008.9
20260504023026 6 360 1.6 8.0 0.05 0.08 0.08 89 1008.7
20260504021532 6 360 1.6 8.0 0.05 0.05 0.05 89 1008.6
20260504020024 5 360 1.6 6.4 0.03 0.05 0.05 88 1009.0
20260504014523 5 360 3.2 8.0 0.05 0.05 0.05 88 1008.7
20260504013032 6 360 3.2 8.0 0.03 0.03 0.03 86 1008.9
20260504011521 5 360 1.6 8.0 0.03 0.03 0.03 85 1008.9
20260504010020 5 215 1.6 9.7 0.03 0.03 0.03 84 1008.8
20260504004519 6 360 3.2 12.9 0.00 0.00 0.00 79 1009.1
20260504003017 6 360 3.2 8.0 0.00 0.00 0.00 76 1009.0
20260504001518 6 360 1.6 9.7 0.00 0.00 0.00 76 1008.9
20260504000016 5 360 1.6 6.4 0.00 0.00 0.00 76 1009.1
20260503234516 5 202 1.6 8.0 0.00 0.00 0.00 75 1009.0
20260503233015 5 360 1.6 9.7 0.00 0.00 0.00 75 1009.1
20260503231515 5 193 3.2 9.7 0.00 0.00 0.00 76 1009.1
20260503230018 5 187 3.2 6.4 0.00 0.00 0.00 77 1008.9
20260503224514 5 181 1.6 4.8 0.00 0.00 0.00 76 1008.8
20260503223028 5 167 3.2 9.7 0.00 0.00 0.00 76 1008.9
20260503221515 6 155 1.6 4.8 0.00 0.00 0.00 75 1009.1
20260503220015 5 192 1.6 6.4 0.00 0.00 0.00 74 1009.2
20260503214513 5 144 1.6 6.4 0.00 0.00 0.00 75 1009.3
20260503213025 6 360 1.6 6.4 0.00 0.00 0.00 74 1009.2
20260503211516 6 170 3.2 12.9 0.00 0.00 0.00 74 1009.1
20260503210009 7 360 4.8 8.0 0.00 0.00 0.00 71 1009.2
20260503204507 7 196 3.2 9.7 0.00 0.00 0.00 71 1009.3
20260503203005 8 360 3.2 9.7 0.00 0.00 0.00 68 1009.4
20260503201502 8 360 4.8 9.7 0.00 0.00 0.00 69 1009.8
20260503200100 8 180 4.8 12.9 0.00 0.00 0.00 67 1010.0
20260503194559 11 360 6.4 16.1 0.00 0.00 0.00 44 1010.1
20260503193111 10 360 6.4 17.7 0.00 0.00 0.00 52 1010.4
20260503191552 8 360 3.2 9.7 0.00 0.00 0.00 66 1010.8
20260503190049 10 360 6.4 19.3 0.00 0.00 0.00 59 1010.9
20260503184549 10 360 4.8 16.1 0.00 0.00 0.00 62 1011.0
20260503183047 10 225 4.8 17.7 0.00 0.00 0.00 65 1011.1
20260503181617 9 360 8.0 19.3 0.00 0.00 0.00 62 1011.3
20260503180045 9 360 8.0 19.3 0.00 0.00 0.00 60 1011.4
20260503174548 10 188 6.4 17.7 0.00 0.00 0.00 62 1011.3
20260503173052 10 360 9.7 20.9 0.00 0.00 0.00 60 1011.6
20260503171539 9 360 8.0 16.1 0.00 0.00 0.00 61 1011.7
20260503100106 0 294 0.0 3.2 0.00 0.00 0.00 72 1013.1
20260503081539 1 296 0.0 3.2 0.00 0.00 0.00 71 1013.2
20260503071535 2 296 1.6 6.4 0.00 0.00 0.00 70 1013.3
20260503054521 3 261 1.6 6.4 0.00 0.00 0.00 74 1013.7
20260503053022 3 360 3.2 9.7 0.00 0.00 0.00 76 1013.8
20260503051512 3 273 1.6 9.7 0.00 0.00 0.00 75 1013.9
20260503050011 3 360 1.6 8.0 0.00 0.00 0.00 75 1014.0
20260503044513 4 360 1.6 8.0 0.00 0.00 0.00 76 1014.0
20260503043007 3 360 4.8 9.7 0.00 0.00 0.00 78 1014.1